www.pogodaiklimat.ru

Погода и климат >> Архив погоды >> Оман >> Ибра


ПОГОДА в Ибре

  • Прогноз погоды в Ибре
  • Монитор погоды в Ибре

АРХИВ ПОГОДЫ в Ибре

Время (UTC), дата Ветер
(напр.,м/с)
 
Видим.   Явления Облачность Т
(С)
Тd
(С)
f
(%)
Тe
(С)
Тes
(С)
Комфортность P
(гПа)
Po
(гПа)
Тmin
(С)
Tmax
(С)
R
(мм)
R24
(мм)
S
(см)
12 12.07 ЮЗ 6 н/о н/о +42.8 +0.7 7 +39 +39 очень
жарко
991.2 939.2
15 12.07 Ю 5 9000 м мгла ясно +41.3 +0.5 8 +38 +38 очень
жарко
993.6 939.9
18 12.07 В 5 н/о н/о +33.8 +19.4 43 +39 +39 очень
душно
996.6 943.2 +43.7
21 12.07 В 2 н/о н/о +30.7 +20.3 54 +37 +37 очень
душно
996.9 943.0
00 13.07 Ю 1 н/о н/о +29.3 +19.9 57 +36 +36 очень
душно
996.5 942.4
03 13.07 СЗ 2 н/о н/о +30.6 +19.9 53 +37 +37 очень
душно
997.4 943.4
06 13.07 ЮВ 2 н/о н/о +38.5 +5.2 13 +36 +36 очень
жарко
996.3 943.4 +28.0
12 13.07 Ю 5 10 км 3/3 750 м
[Sc diur, vesp]
+42.1 +6.9 12 +40 +43 очень
жарко
994.0 940.5
15 13.07 ЮВ 7 н/о н/о +37.3 +16.7 30 +40 +40 очень
душно
995.0 942.2
18 13.07 ЮВ 4 7000 м пыль ясно +32.0 +20.9 52 +39 +39 очень
душно
999.8 944.6 +43.4
21 13.07 ЮВ 5 н/о н/о +26.6 +22.8 80 +35 +35 очень
душно
999.0 944.3
00 14.07 ЮВ 1 н/о н/о +25.7 +22.3 82 +34 +34 очень
душно
999.1 944.3
03 14.07 В 1 н/о н/о +25.7 +22.6 83 +34 +34 очень
душно
999.9 945.0
06 14.07 ЮВ 1 н/о н/о +33.5 +19.2 43 +39 +39 очень
душно
998.5 944.9 +24.8
09 14.07 ЮВ 4 н/о н/о +39.2 +15.5 25 +41 +41 опасность
перегрева
995.2 942.7
12 14.07 Ю 4 н/о н/о +41.1 +10.5 16 +40 +40 очень
жарко
992.8 940.6
15 14.07 Ю 7 н/о н/о +38.6 +12.5 21 +38 +38 очень
жарко
993.9 941.3
18 14.07 ЮВ 5 н/о н/о +32.1 +20.9 52 +40 +40 очень
душно
997.7 944.0 +42.2
21 14.07 ЮВ 2 н/о н/о +29.3 +21.7 64 +38 +38 очень
душно
997.2 943.0
00 15.07 ЮВ 1 н/о н/о +28.0 +21.3 67 +35 +35 очень
душно
996.8 942.4
03 15.07 ЮЗ 1 н/о н/о +29.0 +21.3 63 +37 +37 очень
душно
997.0 942.8
06 15.07 Ю 1 8000 м мгла ясно +34.9 +19.3 40 +40 +60 опасность
солнечного
удара
997.3 942.7 +2.7
09 15.07 ЮЗ 4 8000 м мгла ясно +40.9 +14.3 21 +41 +55 опасность
перегрева
994.1 940.6
12 15.07 Ю 4 н/о н/о +42.6 +12.6 17 +42 +42 опасность
перегрева
990.4 938.6
15 15.07 ЮЗ 8 9000 м мгла 3/3 750 м
[Sc diur, vesp]
+40.8 +12.7 19 +40 +40 очень
жарко
992.3 938.8
18 15.07 Ю 5 н/о н/о +35.7 +19.1 38 +41 +41 опасность
перегрева
994.0 941.0 +43.3
21 15.07 ЮВ 3 н/о н/о +31.3 +20.9 54 +39 +39 очень
душно
994.9 941.2
00 16.07 ЮВ 2 н/о н/о +30.0 +20.0 55 +36 +36 очень
душно
995.0 941.0
03 16.07 Ю 1 н/о н/о +30.3 +19.9 54 +37 +37 очень
душно
995.7 941.8
06 16.07 ЮВ 2 н/о н/о +35.8 +18.0 35 +40 +40 очень
душно
995.1 942.0 +29.7
09 16.07 ЮЗ 4 н/о н/о +42.6 +6.8 12 +40 +40 очень
жарко
992.1 940.1
12 16.07 ЮЗ 5 н/о н/о +43.5 +8.0 12 +41 +41 опасность
перегрева
990.5 938.8
15 16.07 Ю 4 9000 м мгла ясно +41.0 +9.3 15 +39 +39 очень
жарко
993.3 939.7
18 16.07 ЮВ 4 9000 м мгла ясно +34.0 +19.3 42 +39 +39 очень
душно
997.5 942.7 +44.1
21 16.07 Ю 3 н/о н/о +30.8 +18.5 48 +36 +36 очень
душно
996.6 942.6
00 17.07 ЮЗ 1 н/о н/о +29.3 +17.3 48 +33 +33 душно 996.5 942.3
03 17.07 З 1 н/о н/о +30.3 +17.2 45 +34 +34 очень
душно
996.9 942.8
06 17.07 В 1 8000 м мгла 3/0
[Ac trans]
+37.5 +12.2 22 +37 +53 опасность
солнечного
удара
997.3 943.0 +28.3
09 17.07 С 2 н/о н/о +41.4 +7.5 13 +39 +39 очень
жарко
993.6 941.4
12 17.07 ЮЗ 3 н/о н/о +42.6 +4.9 10 +40 +40 очень
жарко
991.6 939.7
15 17.07 Ю 7 н/о н/о +40.8 +6.9 13 +38 +38 очень
жарко
992.8 940.5
18 17.07 ЮВ 4 н/о н/о +34.3 +21.1 46 +42 +42 опасность
перегрева
995.9 942.6 +44.7
21 17.07 Ю 2 н/о н/о +32.1 +21.4 53 +40 +40 очень
душно
996.2 942.6
00 18.07 В 2 н/о н/о +29.5 +21.1 61 +37 +37 очень
душно
996.6 942.5
03 18.07 В 2 н/о н/о +29.6 +20.9 60 +37 +37 очень
душно
997.7 943.5
06 18.07 В 2 н/о н/о +36.9 +14.0 26 +38 +38 очень
душно
995.9 943.0 +29.1
09 18.07 Ю 3 9000 м мгла ясно +41.4 +8.6 14 +39 +58 опасность
солнечного
удара
994.7 941.1
12 18.07 Ю 5 9000 м мгла 4/4 750 м
[Sc diur, vesp]
+44.3 +5.9 10 +42 +44 опасность
перегрева
991.7 938.7
15 18.07 ЮВ 2 9000 м мгла 6/4 750 м
[Sc Ac trans]
+40.3 +7.7 14 +38 +38 очень
жарко
993.3 939.6
18 18.07 ЮВ 2 9000 м мгла 4/0
[Ac trans]
+33.2 +21.7 51 +41 +41 опасность
перегрева
997.1 942.3 +44.7
21 18.07 Ю 3 н/о н/о +31.9 +20.3 50 +38 +38 очень
душно
995.5 941.8
00 19.07 В 2 н/о н/о +29.3 +21.0 61 +37 +37 очень
душно
995.7 941.7

 

Местоположение метеостанции Ибра (Оман): широта 22.73 долгота 58.50 высота над уровнем моря 469 м.

В архиве по умолчанию представлена погода в Ибре за последнюю неделю. Архивные данные за месяц целиком и за предыдущие месяцы, начиная с января 2011 года, Вы можете получить, выбрав интересующий диапазон дат из раскрывающегося списка и нажав кнопку "Ввод!".


*Определитесь, кто Вы:
робот инопланетянин человек

Внимание! Время в таблицах - всемирное. Для получения местного времени необходимо прибавить поправку, которая равна 4 ч.

Смотрите также архив погоды в соседних городах и на ближайших метеорологических станциях:

Погода в Аль Мудайби (Оман) (45 км)
Погода в Бидии (Оман) (47 км)
Погода в Аль Амарат (Оман) (86 км)
Погода в Самаиле (Оман) (86 км)
Погода в Калхате (Оман) (93 км)
Погода в Саике (Оман) (97 км)
Погода в Сибе (Оман) (97 км)
Погода в Порту Sultan Qaboos (Оман) (99 км)
Погода в Назве (Оман) (100 км)
Погода в Суре (Оман) (102 км)

Пояснения к столбцам:

Ветер - указаны скорость ветра в м/с - средняя за 10 мин, порывы в срок и между сроками (в фигурных скобках) и направление, откуда дует ветер: С - северный, СВ - северо-восточный, В - восточный, ЮВ - юго-восточный, Ю - южный, ЮЗ - юго-западный, З - западный, СЗ - северо-западный.
Видимость - горизонтальная дальность видимости в метрах или километрах. При видимости от 1 до 10 км при отсутствии осадков обычно наблюдается дымка, при ухудшении видимости до 1 км и менее - туман. В сухую погоду видимость может ухудшаться дымом, пылью или мглою.
Явления - указаны атмосферные явления, наблюдавшиеся в срок или в последний час перед сроком; фигурными скобками обозначены явления, наблюдавшиеся между сроками (за 1-3 часа до срока); квадратными скобками обозначены град или гололедные отложения с указанием их диаметра в мм.
Облачность - указаны через наклонную черту общая и нижняя облачность в баллах и высота нижней границы облаков в метрах; квадратными скобками обозначены формы облаков: Ci - перистые, Cs - перисто-слоистые, Cc - перисто-кучевые, Ac - высококучевые, As - высокослоистые, Sc - слоисто-кучевые, Ns - слоисто-дождевые, Cu - кучевые, Cb - кучево-дождевые. Подробнее классификацию облаков см. в Атласе облаков (PDF).
T - Температура воздуха - температура, измеренная на высоте 2 м над землей.
Td - Температура точки росы - температура, при понижении до которой содержащийся в воздухе водяной пар достигнет насыщения.
f - Относительная влажность воздуха - влажноcть воздуха, измеренная на высоте 2 м над землей.
Te - Эффективная температура - температура, которую ощущает одетый по сезону человек в тени. Характеристика душности погоды. При расчете учитывается влияние влажности воздуха и скорости ветра на теплоощущения человека.
Tes - Эффективная температура на солнце - температура, которую ощущает человек, с поправкой на солнечный нагрев. Характеристика знойности погоды. Зависит от высоты солнца над горизонтом, облачности и скорости ветра. Ночью, в пасмурную погоду, а также при ветре 12 м/с и более поправка равна нулю.
P - Атмосферное давление - приведенное к уровню моря атмосферное давление.
Po - Атмосферное давление - измеренное на уровне метеостанции атмосферное давление.
Tmin - Минимальная температура - минимум температуры воздуха на высоте 2 м над землей.
Tmax - Максимальная температура - максимум температуры воздуха на высоте 2 м над землей.
R - Количество осадков - Количество выпавших осадков за период времени, мм. При наведении курсора мыши на число - период времени, за который выпало указанное количество осадков.
R24 - Количество осадков - Количество выпавших осадков за 24 часа, мм.
S - Снежный покров - Высота снежного покрова, см. При наведении курсора мыши на число - состояние снежного покрова и степень покрытия местности в баллах.